Dewpoint
38 38 38 37 37 35 33 31 31 32 32 32 31 29 27 27 27 26 26 25 25 26 27 27 28 29 28 28 29 29 29 29 28 29 29 25 25 24 28 33 36 22 28
37 37 38 37 35 33 31 30 30 30 31 31 28 26 24 23 24 23 22 23 22 23 24 24 24 20 25 25 24 27 27 27 26 26 23 22 20 19 25 31 34 18 19
36 36 36 34 33 30 29 27 28 29 29 29 27 25 23 22 20 22 22 22 22 22 22 22 23 23 22 21 20 19 18 16 19 19 16 16 15 15 17 24 31 24 8
35 34 33 32 30 28 27 26 27 28 27 26 25 24 23 20 19 19 20 21 20 20 22 22 21 20 20 19 17 17 15 15 15 13 11 11 10 11 14 14 22 28 9
33 33 33 31 30 28 27 26 26 27 26 26 25 24 23 19 15 19 19 20 18 17 17 16 18 19 20 19 16 16 15 11 11 9 9 9 9 9 9 11 17 27 17
33 32 31 31 28 27 25 24 24 25 25 25 23 22 20 15 20 18 20 16 15 13 12 13 13 12 17 17 18 18 16 16 12 11 10 10 11 10 9 9 14 8 7
34 32 30 29 27 26 24 21 22 24 24 24 22 21 21 20 21 20 20 19 18 18 18 12 6 6 8 6 11 14 15 15 15 13 12 14 13 13 11 7 8 13 10
33 33 31 29 29 28 28 26 27 28 32 29 27 25 22 21 22 21 21 23 23 22 22 20 19 16 13 5 6 11 16 15 15 12 14 16 15 13 9 6 6 14 19
32 32 32 31 30 29 27 26 28 28 28 28 29 27 25 24 21 20 22 24 25 23 22 21 19 17 13 11 11 13 14 15 14 12 13 13 13 14 14 10 12 10 18
32 31 32 31 29 26 25 25 28 29 28 27 27 27 23 24 20 20 24 24 24 23 23 21 15 16 14 12 15 14 12 13 14 14 16 15 15 15 14 16 16 13 16
32 32 31 29 26 24 25 27 26 27 27 25 25 25 25 23 22 18 19 26 24 21 22 22 20 14 13 13 12 14 11 13 13 15 15 16 16 16 15 15 16 15 14
31 31 28 27 25 22 24 25 25 25 24 24 24 24 25 24 19 18 18 19 18 22 22 21 18 13 12 11 11 9 8 12 16 16 15 14 15 15 16 16 14 15 14
31 29 27 26 23 21 22 24 23 24 23 23 23 23 24 25 23 17 16 16 15 20 21 16 12 10 9 11 9 9 11 15 15 14 14 14 15 15 15 15 15 14 15
28 27 26 24 20 18 19 19 20 22 22 22 22 23 23 24 22 21 20 18 15 16 13 14 10 9 7 9 13 13 14 14 15 15 15 16 16 15 15 15 15 15 15
29 27 26 23 18 17 18 18 18 23 20 21 23 23 24 23 23 21 19 19 18 15 13 14 15 16 16 16 15 13 15 15 14 14 14 14 13 12 12 13 12 13 13
28 27 26 22 18 16 17 18 19 18 16 17 19 21 24 22 19 17 15 14 12 9 12 14 16 16 16 14 14 13 12 9 11 11 11 10 11 10 11 12 11 12 11
27 27 26 22 18 18 18 18 19 19 17 18 19 19 19 18 16 15 15 13 10 7 13 13 16 16 14 9 8 7 7 5 6 8 9 9 10 10 10 9 9 9 9
32 29 28 26 25 25 25 24 23 21 19 20 20 20 19 18 19 16 14 12 10 8 9 11 12 12 7 3 0 2 3 7 7 6 8 8 8 8 8 6 6 6 5
31 31 31 30 29 27 25 24 23 21 21 20 20 22 20 23 19 16 13 15 13 10 7 5 9 6 4 3 9 10 11 10 8 11 9 6 9 6 6 4 5 3 2
30 29 27 27 25 24 23 22 21 20 19 19 18 20 20 19 19 18 17 16 14 8 6 4 2 3 6 7 12 12 12 11 10 8 10 10 9 7 6 4 5 4 2
27 27 27 25 23 23 23 22 20 18 17 16 18 22 18 15 15 15 12 14 13 9 11 6 7 9 10 11 6 9 7 10 7 6 7 6 7 6 4 5 4 2 0
26 25 25 24 22 23 21 19 18 16 16 16 17 20 17 18 15 14 13 13 12 9 9 10 8 7 7 6 7 11 8 8 9 7 7 3 4 5 4 4 4 4 3
25 25 25 24 24 22 20 17 19 20 19 19 17 16 16 18 17 15 14 15 12 11 9 9 11 8 8 8 9 8 7 7 7 5 3 4 3 4 4 4 2 2 2
25 26 23 23 23 19 22 23 22 20 19 20 20 19 18 18 19 17 16 15 13 12 11 9 8 6 6 7 8 6 4 5 5 3 -7 1 1 1 2 1 0 0 0
27 27 26 25 24 24 24 23 23 22 22 22 21 20 19 18 18 17 15 13 11 10 7 7 7 5 3 2 3 1 0 -5 -3 -3 -1 -0 0 -1 -0 -0 0 -1 -1
27 27 27 26 26 25 24 24 23 22 22 22 21 21 20 18 17 16 14 11 8 7 7 6 5 2 2 2 1 -0 -2 -4 -4 -6 -3 -0 0 1 1 0 -2 -1 -1
Lifted_Index
12 12 12 12 12 11 11 12 12 13 15 16 16 16 17 17 18 18 18 18 18 17 17 17 18 18 18 18 17 17 17 16 15 15 16 17 17 17 16 17 18 18 18
12 12 12 12 11 11 11 12 13 14 15 16 16 17 17 18 18 18 18 18 18 17 17 17 18 18 18 17 17 17 17 17 16 16 17 18 18 18 17 17 18 19 19
12 12 12 12 11 11 12 12 14 15 16 17 17 17 18 18 19 19 19 18 18 17 17 18 18 17 17 16 16 16 17 17 17 17 17 18 19 19 18 17 17 19 19
11 12 12 12 12 12 12 13 14 16 17 17 18 18 19 19 19 19 19 18 17 17 18 18 18 17 17 16 16 16 16 17 17 17 17 18 18 19 18 17 16 18 19
11 11 12 12 12 12 13 14 15 16 17 18 18 19 19 19 19 19 19 18 17 17 17 18 18 18 17 17 16 16 16 16 16 16 16 17 17 17 17 17 16 16 17
11 11 12 12 12 13 14 15 16 17 18 18 19 19 19 19 19 19 18 18 17 17 17 18 18 18 18 18 17 17 17 16 16 16 16 16 17 17 16 16 16 16 16
11 12 12 12 13 13 13 14 16 17 18 18 18 19 18 19 19 19 19 18 17 17 17 17 18 18 18 18 18 18 18 17 17 17 17 17 17 17 17 16 16 16 16
11 11 12 12 12 12 12 13 15 17 18 18 18 18 18 19 19 19 19 18 17 17 18 18 18 18 18 19 19 18 18 18 19 19 19 19 19 19 18 17 17 17 17
9 10 11 11 11 11 11 13 16 17 18 18 18 18 18 19 19 19 19 18 17 18 18 19 19 18 19 19 19 18 18 18 20 20 20 21 21 21 20 19 17 16 16
8 9 10 11 11 11 12 14 16 17 18 18 18 19 19 19 19 19 19 18 17 17 18 19 19 19 19 19 19 18 18 18 20 20 21 21 21 21 21 20 19 17 16
8 9 10 11 11 12 13 15 16 17 17 17 17 18 18 19 19 19 19 18 18 18 18 19 19 20 20 20 20 19 19 19 20 20 20 20 21 21 21 22 21 20 19
8 9 10 11 11 12 13 15 16 16 16 16 16 17 18 19 19 19 19 19 18 18 18 19 20 20 20 20 20 20 20 20 20 20 19 20 20 21 22 23 23 23 23
9 9 10 10 11 13 14 15 15 16 16 15 15 16 17 18 19 19 19 19 19 19 19 20 20 20 20 20 21 21 21 21 20 19 19 20 21 22 23 23 24 25 25
8 9 9 10 11 13 15 15 16 16 15 15 15 15 16 17 18 19 19 19 19 19 19 20 20 20 20 20 20 21 21 21 20 20 20 21 21 22 23 23 23 24 24
8 8 8 9 10 12 15 16 16 16 16 16 16 16 16 17 18 19 19 18 19 19 19 19 19 19 19 19 20 20 20 21 20 20 21 21 21 22 22 23 23 22 22
7 7 7 8 10 12 14 15 16 16 17 17 18 18 18 18 18 19 19 19 19 19 19 18 18 18 18 19 19 20 20 20 21 21 21 21 21 21 22 22 23 22 21
6 7 7 8 9 11 13 14 15 15 16 18 18 19 19 19 19 19 20 19 19 19 18 18 18 18 19 19 19 20 20 21 21 21 21 21 21 21 21 22 22 21 21
7 7 8 9 10 11 13 14 14 14 15 16 18 19 19 19 20 20 20 19 19 18 18 18 19 19 19 20 20 20 20 21 21 21 22 22 22 22 21 21 21 21 21
7 8 8 9 11 12 13 14 14 14 15 16 17 19 19 19 20 20 20 19 19 18 19 19 19 20 20 20 20 21 21 21 21 22 22 22 22 22 21 21 21 21 21
8 9 10 11 11 13 14 14 15 15 15 16 17 18 19 19 19 19 19 19 19 19 19 19 20 20 20 21 21 21 21 21 22 22 22 22 22 22 22 22 22 21 21
9 10 11 11 12 13 14 15 15 15 16 16 17 18 18 19 19 19 19 19 19 20 20 20 20 20 20 21 21 21 21 21 22 22 22 22 22 22 22 22 22 22 22
10 11 11 12 13 14 15 15 16 16 16 16 17 18 18 18 18 18 19 19 19 20 20 20 20 20 21 21 21 21 21 21 22 22 22 22 22 22 22 22 22 21 21
11 11 12 13 14 14 15 15 16 16 16 16 17 17 17 18 18 18 18 19 19 20 20 20 20 21 21 22 22 22 22 22 22 22 22 22 22 22 21 21 21 21 21
12 12 12 13 14 14 15 15 16 16 16 16 16 16 17 17 17 18 18 19 19 20 20 21 21 21 21 22 22 22 22 22 23 23 22 22 21 21 21 21 21 20 20
13 13 13 13 13 14 14 15 15 15 16 16 16 16 16 17 17 17 18 19 19 20 20 21 21 21 21 22 22 22 22 23 23 23 22 22 21 21 21 21 20 20 20
13 13 13 13 13 14 14 15 15 15 15 16 16 16 16 16 17 17 18 19 19 20 20 21 21 21 22 22 22 22 22 22 22 23 22 22 21 21 21 20 20 20 20